Simultaneous Nadir Overpasses (SNOs) Predictions

Prediction of SNOs between AQUA and METOP-A Satellite Orbit:

Table of predicted SNOs for the next 14.0 days since TLE Epoch: 5/10/2019
Index Date (AQUA) Time (AQUA) Lat,Lon (AQUA) SZA (AQUA ) Date (METOP-A) Time (METOP-A) Lat,Lon (METOP-A) SZA (METOP-A ) Distance(km) Time Diff (sec)
1 05/10/2019 23:27:24 75.21, 179.20 57.55 05/10/2019 23:28:16 75.20, 179.32 57.52 3.84 52
2 05/13/2019 18:12:08 -75.11, 78.27 123.27 05/13/2019 18:11:51 -75.14, 78.23 123.23 3.45 17
3 05/13/2019 19:01:38 75.21,-114.37 56.84 05/13/2019 19:02:29 75.21,-114.24 56.83 3.69 51
4 05/16/2019 13:46:23 -75.16, 144.57 123.88 05/16/2019 13:46:04 -75.15, 144.67 123.89 2.98 19
5 05/16/2019 14:35:51 75.17, -47.81 56.12 05/16/2019 14:36:43 75.18, -47.94 56.13 3.64 52
6 05/19/2019 09:20:37 -75.17,-149.01 124.50 05/19/2019 09:20:17 -75.16,-148.89 124.50 3.31 20
7 05/19/2019 10:10:05 75.18, 18.60 55.51 05/19/2019 10:10:56 75.19, 18.50 55.51 2.76 51
8 05/22/2019 04:54:49 -75.13, -82.46 125.12 05/22/2019 04:54:30 -75.13, -82.60 125.11 3.82 19
9 05/22/2019 05:44:18 75.20, 84.99 54.95 05/22/2019 05:45:08 75.19, 84.93 54.94 1.76 50




NCC Satellite Simultaneous Nadir Overpasses (SNOs) Prediction Service
